11-11-2022, 00:00:03,    206,    2.2,   12.7,   0.00,   0.00, 1018.0,   71.6, -999.0
11-11-2022, 00:00:14,    175,    2.0,   12.6,   0.00,   0.00, 1018.0,   71.6, -999.0
11-11-2022, 00:00:24,    155,    3.7,   12.6,   0.00,   0.00, 1018.0,   71.6, -999.0
11-11-2022, 00:00:33,    183,    2.7,   12.6,   0.00,   0.00, 1018.0,   71.6, -999.0
11-11-2022, 00:00:43,    199,    1.4,   12.7,   0.00,   0.00, 1018.0,   71.6, -999.0
11-11-2022, 00:00:54,    189,    0.8,   12.6,   0.00,   0.00, 1018.0,   71.6, -999.0
11-11-2022, 00:01:03,    211,    0.4,   12.6,   0.00,   0.00, 1017.9,   71.6, -999.0
11-11-2022, 00:01:13,    244,    0.8,   12.6,   0.00,   0.00, 1017.9,   71.6, -999.0
11-11-2022, 00:01:23,    147,    2.0,   12.6,   0.00,   0.00, 1018.0,   71.6, -999.0
11-11-2022, 00:01:33,    203,    2.0,   12.6,   0.00,   0.00, 1018.0,   71.6, -999.0
11-11-2022, 00:01:43,    196,    4.2,   12.6,   0.00,   0.00, 1018.0,   71.6, -999.0
11-11-2022, 00:01:53,    188,    5.8,   12.6,   0.00,   0.00, 1018.0,   71.6, -999.0
11-11-2022, 00:02:03,    242,    4.0,   12.6,   0.00,   0.00, 1018.0,   71.4, -999.0
11-11-2022, 00:02:13,    181,    3.9,   12.7,   0.00,   0.00, 1018.0,   71.4, -999.0
11-11-2022, 00:02:23,    144,    4.3,   12.7,   0.00,   0.00, 1018.0,   71.4, -999.0
11-11-2022, 00:02:33,    215,    4.8,   12.6,   0.00,   0.00, 1018.0,   71.5, -999.0
11-11-2022, 00:02:43,    253,    4.0,   12.7,   0.00,   0.00, 1018.0,   71.3, -999.0
11-11-2022, 00:02:53,    207,    3.8,   12.7,   0.00,   0.00, 1018.0,   71.3, -999.0
11-11-2022, 00:03:03,    225,    5.6,   12.7,   0.00,   0.00, 1018.0,   71.4, -999.0
11-11-2022, 00:03:13,    170,    3.1,   12.7,   0.00,   0.00, 1018.0,   71.3, -999.0
11-11-2022, 00:03:23,    239,    1.7,   12.6,   0.00,   0.00, 1018.0,   71.4, -999.0
11-11-2022, 00:03:33,    194,    1.6,   12.6,   0.00,   0.00, 1018.0,   71.4, -999.0
11-11-2022, 00:03:43,    238,    5.7,   12.6,   0.00,   0.00, 1018.0,   71.4, -999.0
11-11-2022, 00:03:53,    188,    5.0,   12.6,   0.00,   0.00, 1018.0,   71.3, -999.0
11-11-2022, 00:04:03,    200,    7.4,   12.7,   0.00,   0.00, 1018.0,   71.2, -999.0
11-11-2022, 00:04:13,    232,    7.4,   12.6,   0.00,   0.00, 1018.0,   71.0, -999.0
11-11-2022, 00:04:23,    214,    2.6,   12.7,   0.00,   0.00, 1018.0,   71.0, -999.0
11-11-2022, 00:04:32,    200,    2.9,   12.7,   0.00,   0.00, 1018.0,   71.0, -999.0
11-11-2022, 00:04:43,    210,    3.0,   12.7,   0.00,   0.00, 1018.0,   71.0, -999.0
11-11-2022, 00:04:53,    205,    3.6,   12.7,   0.00,   0.00, 1018.0,   71.1, -999.0
11-11-2022, 00:05:02,    162,    3.2,   12.7,   0.00,   0.00, 1018.0,   71.1, -999.0
11-11-2022, 00:05:13,    118,    4.5,   12.7,   0.00,   0.00, 1018.0,   71.2, -999.0
11-11-2022, 00:05:23,    206,    5.5,   12.7,   0.00,   0.00, 1018.0,   71.2, -999.0
11-11-2022, 00:05:32,    216,    6.1,   12.7,   0.00,   0.00, 1018.0,   71.1, -999.0
11-11-2022, 00:05:42,    235,    3.3,   12.7,   0.00,   0.00, 1018.0,   71.1, -999.0
11-11-2022, 00:05:53,    163,    5.6,   12.7,   0.00,   0.00, 1018.0,   70.9, -999.0
11-11-2022, 00:06:02,    197,    8.3,   12.7,   0.00,   0.00, 1018.0,   70.8, -999.0
11-11-2022, 00:06:12,    228,    5.4,   12.7,   0.00,   0.00, 1018.0,   70.8, -999.0
11-11-2022, 00:06:22,    216,    3.6,   12.8,   0.00,   0.00, 1018.0,   70.9, -999.0
11-11-2022, 00:06:32,    211,    1.7,   12.7,   0.00,   0.00, 1018.0,   70.9, -999.0
11-11-2022, 00:06:42,    214,    2.8,   12.7,   0.00,   0.00, 1018.0,   70.9, -999.0
11-11-2022, 00:06:52,    218,    3.4,   12.6,   0.00,   0.00, 1018.0,   71.0, -999.0
11-11-2022, 00:07:02,    194,    5.0,   12.7,   0.00,   0.00, 1018.0,   71.0, -999.0
11-11-2022, 00:07:12,    211,    9.5,   12.7,   0.00,   0.00, 1018.0,   70.9, -999.0
11-11-2022, 00:07:22,    216,    6.4,   12.7,   0.00,   0.00, 1018.0,   70.8, -999.0
11-11-2022, 00:07:32,    213,    4.4,   12.7,   0.00,   0.00, 1018.0,   70.8, -999.0
11-11-2022, 00:07:42,    197,    2.7,   12.7,   0.00,   0.00, 1018.0,   70.8, -999.0
11-11-2022, 00:07:52,    191,    1.4,   12.7,   0.00,   0.00, 1018.0,   70.7, -999.0
11-11-2022, 00:08:02,    176,    4.6,   12.7,   0.00,   0.00, 1018.0,   70.8, -999.0
11-11-2022, 00:08:12,    217,    5.4,   12.8,   0.00,   0.00, 1018.0,   70.7, -999.0
11-11-2022, 00:08:22,    236,    2.2,   12.7,   0.00,   0.00, 1018.0,   70.7, -999.0
11-11-2022, 00:08:32,    187,    2.6,   12.7,   0.00,   0.00, 1018.0,   70.7, -999.0
11-11-2022, 00:08:42,    201,    1.3,   12.7,   0.00,   0.00, 1018.0,   70.7, -999.0
11-11-2022, 00:08:52,    205,    4.6,   12.8,   0.00,   0.00, 1018.1,   70.7, -999.0
11-11-2022, 00:09:02,    217,    3.1,   12.7,   0.00,   0.00, 1018.0,   70.8, -999.0
11-11-2022, 00:09:12,    213,    3.3,   12.8,   0.00,   0.00, 1018.0,   70.8, -999.0
11-11-2022, 00:09:22,    187,    1.4,   12.8,   0.00,   0.00, 1018.1,   70.7, -999.0
11-11-2022, 00:09:32,    225,    3.2,   12.7,   0.00,   0.00, 1018.1,   70.8, -999.0
11-11-2022, 00:09:42,    200,    4.7,   12.7,   0.00,   0.00, 1018.0,   70.7, -999.0
11-11-2022, 00:09:52,    205,    4.5,   12.7,   0.00,   0.00, 1018.0,   70.8, -999.0
11-11-2022, 00:10:01,    155,    3.3,   12.7,   0.00,   0.00, 1018.0,   70.8, -999.0
11-11-2022, 00:10:12,    178,    2.1,   12.7,   0.00,   0.00, 1018.0,   70.8, -999.0
11-11-2022, 00:10:22,    191,    5.8,   12.7,   0.00,   0.00, 1018.0,   70.7, -999.0
11-11-2022, 00:10:31,    217,    4.1,   12.7,   0.00,   0.00, 1018.0,   70.7, -999.0
11-11-2022, 00:10:41,    218,    3.0,   12.7,   0.00,   0.00, 1018.0,   70.7, -999.0
11-11-2022, 00:10:52,    237,    5.1,   12.8,   0.00,   0.00, 1018.0,   70.6, -999.0
11-11-2022, 00:11:01,    235,    3.9,   12.8,   0.00,   0.00, 1018.0,   70.6, -999.0
11-11-2022, 00:11:11,    225,    1.9,   12.8,   0.00,   0.00, 1018.0,   70.6, -999.0
11-11-2022, 00:11:21,    202,    0.7,   12.7,   0.00,   0.00, 1018.0,   70.5, -999.0
11-11-2022, 00:11:31,    222,    0.4,   12.7,   0.00,   0.00, 1018.0,   70.6, -999.0
11-11-2022, 00:11:41,    198,    2.4,   12.7,   0.00,   0.00, 1018.1,   70.6, -999.0
11-11-2022, 00:11:51,    188,    2.2,   12.8,   0.00,   0.00, 1018.0,   70.6, -999.0
11-11-2022, 00:12:01,    191,    0.7,   12.7,   0.00,   0.00, 1018.0,   70.7, -999.0
11-11-2022, 00:12:11,    212,    1.5,   12.6,   0.00,   0.00, 1018.0,   70.6, -999.0
11-11-2022, 00:12:21,    197,    0.8,   12.7,   0.00,   0.00, 1017.9,   70.7, -999.0
11-11-2022, 00:12:31,    209,    2.2,   12.7,   0.00,   0.00, 1018.0,   70.8, -999.0
11-11-2022, 00:12:41,    251,    4.4,   12.7,   0.00,   0.00, 1018.0,   70.8, -999.0
11-11-2022, 00:12:51,    224,    3.9,   12.7,   0.00,   0.00, 1018.0,   70.8, -999.0
11-11-2022, 00:13:01,    196,    1.4,   12.7,   0.00,   0.00, 1018.0,   70.7, -999.0
11-11-2022, 00:13:11,    193,    3.1,   12.7,   0.00,   0.00, 1018.1,   70.8, -999.0
11-11-2022, 00:13:21,    247,    4.4,   12.7,   0.00,   0.00, 1018.0,   70.7, -999.0
11-11-2022, 00:13:31,    188,    1.3,   12.7,   0.00,   0.00, 1018.0,   70.7, -999.0
11-11-2022, 00:13:41,    175,    1.5,   12.8,   0.00,   0.00, 1018.0,   70.6, -999.0
11-11-2022, 00:13:51,    179,    1.9,   12.7,   0.00,   0.00, 1018.0,   70.7, -999.0
11-11-2022, 00:14:01,    207,    1.6,   12.7,   0.00,   0.00, 1018.0,   70.7, -999.0
11-11-2022, 00:14:11,    264,    4.8,   12.7,   0.00,   0.00, 1018.0,   70.6, -999.0
11-11-2022, 00:14:21,    213,    5.9,   12.7,   0.00,   0.00, 1018.1,   70.7, -999.0
11-11-2022, 00:14:30,    191,    4.6,   12.7,   0.00,   0.00, 1018.1,   70.7, -999.0
11-11-2022, 00:14:41,    166,    2.1,   12.7,   0.00,   0.00, 1018.1,   70.7, -999.0
11-11-2022, 00:14:51,    211,    3.0,   12.7,   0.00,   0.00, 1018.0,   70.8, -999.0
11-11-2022, 00:15:00,    182,    4.0,   12.6,   0.00,   0.00, 1018.1,   70.7, -999.0
11-11-2022, 00:15:10,    231,    2.8,   12.7,   0.00,   0.00, 1018.0,   70.7, -999.0
11-11-2022, 00:15:21,    217,    2.4,   12.7,   0.00,   0.00, 1018.1,   70.6, -999.0
11-11-2022, 00:15:30,    201,    2.6,   12.7,   0.00,   0.00, 1018.2,   70.6, -999.0
11-11-2022, 00:15:40,    201,    2.5,   12.7,   0.00,   0.00, 1018.2,   70.7, -999.0
11-11-2022, 00:15:51,    104,    4.8,   12.7,   0.00,   0.00, 1018.0,   70.7, -999.0
11-11-2022, 00:16:00,    181,    3.3,   12.7,   0.00,   0.00, 1018.0,   70.7, -999.0
11-11-2022, 00:16:10,    137,    2.4,   12.7,   0.00,   0.00, 1018.1,   70.7, -999.0
11-11-2022, 00:16:20,    240,    2.1,   12.7,   0.00,   0.00, 1018.2,   70.7, -999.0
11-11-2022, 00:16:30,    177,    3.5,   12.7,   0.00,   0.00, 1018.1,   70.5, -999.0
11-11-2022, 00:16:40,    215,    3.8,   12.8,   0.00,   0.00, 1018.1,   70.7, -999.0
11-11-2022, 00:16:50,    195,    3.2,   12.7,   0.00,   0.00, 1018.1,   70.7, -999.0
11-11-2022, 00:17:00,    234,    4.1,   12.7,   0.00,   0.00, 1018.1,   70.6, -999.0
11-11-2022, 00:17:10,    174,    7.1,   12.7,   0.00,   0.00, 1018.1,   70.7, -999.0
11-11-2022, 00:17:20,    213,    3.9,   12.7,   0.00,   0.00, 1018.1,   70.6, -999.0
11-11-2022, 00:17:30,    223,    6.2,   12.7,   0.00,   0.00, 1018.2,   70.6, -999.0
11-11-2022, 00:17:40,    211,    4.3,   12.7,   0.00,   0.00, 1018.1,   70.6, -999.0
11-11-2022, 00:17:50,    201,    5.8,   12.7,   0.00,   0.00, 1018.1,   70.6, -999.0
11-11-2022, 00:18:00,    219,    4.8,   12.8,   0.00,   0.00, 1018.2,   70.6, -999.0
11-11-2022, 00:18:10,    229,    4.9,   12.8,   0.00,   0.00, 1018.1,   70.5, -999.0
11-11-2022, 00:18:20,    174,    2.3,   12.8,   0.00,   0.00, 1018.1,   70.5, -999.0
11-11-2022, 00:18:30,    162,    2.8,   12.8,   0.00,   0.00, 1018.1,   70.7, -999.0
11-11-2022, 00:18:40,    206,    5.1,   12.7,   0.00,   0.00, 1018.1,   70.5, -999.0
11-11-2022, 00:18:50,    189,    3.8,   12.7,   0.00,   0.00, 1018.1,   70.4, -999.0
11-11-2022, 00:19:00,    172,    3.4,   12.7,   0.00,   0.00, 1018.1,   70.6, -999.0
11-11-2022, 00:19:10,    204,    3.0,   12.8,   0.00,   0.00, 1018.1,   70.5, -999.0
11-11-2022, 00:19:20,    183,    4.8,   12.8,   0.00,   0.00, 1018.1,   70.4, -999.0
11-11-2022, 00:19:30,    197,    2.1,   12.8,   0.00,   0.00, 1018.1,   70.5, -999.0
11-11-2022, 00:19:40,    203,    1.7,   12.7,   0.00,   0.00, 1018.2,   70.5, -999.0
11-11-2022, 00:19:50,    176,    0.6,   12.7,   0.00,   0.00, 1018.1,   70.5, -999.0
11-11-2022, 00:20:00,    215,    2.3,   12.6,   0.00,   0.00, 1018.2,   70.6, -999.0
11-11-2022, 00:20:09,    215,    0.4,   12.6,   0.00,   0.00, 1018.1,   70.5, -999.0
11-11-2022, 00:20:20,    231,    1.5,   12.7,   0.00,   0.00, 1018.1,   70.6, -999.0
11-11-2022, 00:20:30,    253,    3.3,   12.7,   0.00,   0.00, 1018.1,   70.6, -999.0
11-11-2022, 00:20:39,    216,    2.1,   12.7,   0.00,   0.00, 1018.1,   70.7, -999.0
11-11-2022, 00:20:49,    238,    1.0,   12.7,   0.00,   0.00, 1018.2,   70.7, -999.0
11-11-2022, 00:21:00,    187,    1.6,   12.7,   0.00,   0.00, 1018.2,   70.8, -999.0
11-11-2022, 00:21:09,    232,    1.2,   12.7,   0.00,   0.00, 1018.0,   70.7, -999.0
11-11-2022, 00:21:19,    225,    3.1,   12.7,   0.00,   0.00, 1018.1,   70.6, -999.0
11-11-2022, 00:21:30,    221,    4.3,   12.6,   0.00,   0.00, 1018.2,   70.7, -999.0
11-11-2022, 00:21:39,    198,    3.2,   12.7,   0.00,   0.00, 1018.2,   70.7, -999.0
11-11-2022, 00:21:49,    230,    0.8,   12.7,   0.00,   0.00, 1018.1,   70.7, -999.0
11-11-2022, 00:21:59,    213,    3.6,   12.7,   0.00,   0.00, 1018.1,   70.7, -999.0
11-11-2022, 00:22:09,    211,    2.4,   12.7,   0.00,   0.00, 1018.1,   70.7, -999.0
11-11-2022, 00:22:19,    189,    2.4,   12.6,   0.00,   0.00, 1018.2,   70.8, -999.0
11-11-2022, 00:22:29,    223,    5.6,   12.7,   0.00,   0.00, 1018.1,   70.7, -999.0
11-11-2022, 00:22:39,    250,    6.4,   12.7,   0.00,   0.00, 1018.2,   70.8, -999.0
11-11-2022, 00:22:49,    207,    3.8,   12.7,   0.00,   0.00, 1018.1,   70.7, -999.0
11-11-2022, 00:22:59,    183,    3.3,   12.7,   0.00,   0.00, 1018.2,   70.7, -999.0
11-11-2022, 00:23:09,    177,    0.7,   12.7,   0.00,   0.00, 1018.1,   70.6, -999.0
11-11-2022, 00:23:19,    194,    1.1,   12.7,   0.00,   0.00, 1018.1,   70.7, -999.0
11-11-2022, 00:23:29,    201,    0.3,   12.6,   0.00,   0.00, 1018.1,   70.7, -999.0
11-11-2022, 00:23:39,    211,    1.3,   12.7,   0.00,   0.00, 1018.2,   70.9, -999.0
11-11-2022, 00:23:49,    206,    1.1,   12.7,   0.00,   0.00, 1018.2,   70.8, -999.0
11-11-2022, 00:23:59,    185,    0.9,   12.7,   0.00,   0.00, 1018.1,   70.9, -999.0
11-11-2022, 00:24:09,    222,    4.7,   12.7,   0.00,   0.00, 1018.1,   70.9, -999.0
11-11-2022, 00:24:19,    201,    3.5,   12.7,   0.00,   0.00, 1018.1,   70.8, -999.0
11-11-2022, 00:24:29,    199,    1.5,   12.6,   0.00,   0.00, 1018.1,   70.7, -999.0
11-11-2022, 00:24:38,    209,    3.8,   12.7,   0.00,   0.00, 1018.0,   70.6, -999.0
11-11-2022, 00:24:49,    213,    5.0,   12.7,   0.00,   0.00, 1018.1,   70.7, -999.0
11-11-2022, 00:24:59,    231,    6.3,   12.7,   0.00,   0.00, 1018.0,   70.7, -999.0
11-11-2022, 00:25:08,    250,    4.4,   12.7,   0.00,   0.00, 1018.1,   70.6, -999.0
11-11-2022, 00:25:19,    165,    1.3,   12.7,   0.00,   0.00, 1018.0,   70.7, -999.0
11-11-2022, 00:25:29,    199,    2.3,   12.7,   0.00,   0.00, 1018.1,   70.6, -999.0
11-11-2022, 00:25:38,    201,    3.9,   12.7,   0.00,   0.00, 1018.1,   70.6, -999.0
11-11-2022, 00:25:48,    219,    3.6,   12.7,   0.00,   0.00, 1018.1,   70.6, -999.0
11-11-2022, 00:25:59,    227,    2.3,   12.7,   0.00,   0.00, 1018.1,   70.6, -999.0
11-11-2022, 00:26:08,    239,    1.8,   12.7,   0.00,   0.00, 1018.1,   70.6, -999.0
11-11-2022, 00:26:18,    231,    2.4,   12.7,   0.00,   0.00, 1018.1,   70.6, -999.0
11-11-2022, 00:26:28,    188,    2.0,   12.7,   0.00,   0.00, 1018.0,   70.6, -999.0
11-11-2022, 00:26:38,    205,    3.3,   12.7,   0.00,   0.00, 1018.1,   70.6, -999.0
11-11-2022, 00:26:48,    192,    4.5,   12.7,   0.00,   0.00, 1018.1,   70.6, -999.0
11-11-2022, 00:26:58,    212,    3.1,   12.7,   0.00,   0.00, 1018.1,   70.6, -999.0
11-11-2022, 00:27:08,    195,    2.6,   12.7,   0.00,   0.00, 1018.2,   70.6, -999.0
11-11-2022, 00:27:18,    200,    2.3,   12.7,   0.00,   0.00, 1018.2,   70.6, -999.0
11-11-2022, 00:27:28,    185,    1.4,   12.7,   0.00,   0.00, 1018.1,   70.6, -999.0
11-11-2022, 00:27:38,    124,    1.6,   12.7,   0.00,   0.00, 1018.1,   70.7, -999.0
11-11-2022, 00:27:48,    206,    1.8,   12.7,   0.00,   0.00, 1018.0,   70.5, -999.0
11-11-2022, 00:27:58,    225,    3.5,   12.7,   0.00,   0.00, 1018.1,   70.7, -999.0
11-11-2022, 00:28:08,    227,    1.4,   12.7,   0.00,   0.00, 1018.1,   70.6, -999.0
11-11-2022, 00:28:18,    188,    2.2,   12.7,   0.00,   0.00, 1018.2,   70.7, -999.0
11-11-2022, 00:28:28,    169,    2.7,   12.7,   0.00,   0.00, 1018.1,   70.6, -999.0
11-11-2022, 00:28:38,    163,    1.1,   12.7,   0.00,   0.00, 1018.0,   70.7, -999.0
11-11-2022, 00:28:48,    175,    0.4,   12.6,   0.00,   0.00, 1018.0,   70.6, -999.0
11-11-2022, 00:28:58,    208,    0.8,   12.7,   0.00,   0.00, 1018.1,   70.7, -999.0
11-11-2022, 00:29:08,    202,    2.8,   12.7,   0.00,   0.00, 1018.1,   70.8, -999.0
11-11-2022, 00:29:18,    204,    3.9,   12.7,   0.00,   0.00, 1018.1,   70.7, -999.0
11-11-2022, 00:29:28,    205,    3.3,   12.7,   0.00,   0.00, 1018.1,   70.7, -999.0
11-11-2022, 00:29:37,    133,    3.5,   12.7,   0.00,   0.00, 1018.1,   70.8, -999.0
11-11-2022, 00:29:48,    164,    1.2,   12.6,   0.00,   0.00, 1018.1,   70.8, -999.0
11-11-2022, 00:29:58,    214,    1.0,   12.6,   0.00,   0.00, 1018.1,   70.7, -999.0
11-11-2022, 00:30:07,    182,    2.1,   12.7,   0.00,   0.00, 1018.2,   70.8, -999.0
11-11-2022, 00:30:17,    205,    0.9,   12.6,   0.00,   0.00, 1018.1,   70.8, -999.0
11-11-2022, 00:30:28,    204,    0.9,   12.5,   0.00,   0.00, 1018.1,   70.6, -999.0
11-11-2022, 00:30:37,    218,    3.6,   12.7,   0.00,   0.00, 1018.1,   70.8, -999.0
11-11-2022, 00:30:47,    220,    3.0,   12.6,   0.00,   0.00, 1018.1,   70.9, -999.0
11-11-2022, 00:30:58,    219,    1.9,   12.6,   0.00,   0.00, 1018.2,   70.9, -999.0
11-11-2022, 00:31:07,    214,    2.8,   12.6,   0.00,   0.00, 1018.2,   70.9, -999.0
11-11-2022, 00:31:17,    180,    3.3,   12.6,   0.00,   0.00, 1018.1,   70.9, -999.0
11-11-2022, 00:31:27,    203,    1.2,   12.6,   0.00,   0.00, 1018.2,   70.7, -999.0
11-11-2022, 00:31:37,    201,    1.7,   12.6,   0.00,   0.00, 1018.2,   70.9, -999.0
11-11-2022, 00:31:47,    242,    1.6,   12.6,   0.00,   0.00, 1018.1,   70.7, -999.0
11-11-2022, 00:31:57,    222,    3.3,   12.5,   0.00,   0.00, 1018.2,   70.8, -999.0
11-11-2022, 00:32:07,    195,    4.4,   12.7,   0.00,   0.00, 1018.1,   70.8, -999.0
11-11-2022, 00:32:17,    206,    0.9,   12.6,   0.00,   0.00, 1018.1,   70.7, -999.0
11-11-2022, 00:32:27,    204,    1.7,   12.7,   0.00,   0.00, 1018.1,   70.7, -999.0
11-11-2022, 00:32:37,    174,    4.0,   12.7,   0.00,   0.00, 1018.1,   70.7, -999.0
11-11-2022, 00:32:47,    201,    1.9,   12.7,   0.00,   0.00, 1018.1,   70.7, -999.0
11-11-2022, 00:32:57,    219,    3.8,   12.6,   0.00,   0.00, 1018.2,   70.7, -999.0
11-11-2022, 00:33:07,    190,    2.9,   12.6,   0.00,   0.00, 1018.2,   70.6, -999.0
11-11-2022, 00:33:17,    206,    3.1,   12.7,   0.00,   0.00, 1018.1,   70.6, -999.0
11-11-2022, 00:33:27,    237,    2.4,   12.7,   0.00,   0.00, 1018.2,   70.7, -999.0
11-11-2022, 00:33:37,    224,    0.6,   12.6,   0.00,   0.00, 1018.2,   70.8, -999.0
11-11-2022, 00:33:47,    241,    0.3,   12.6,   0.00,   0.00, 1018.1,   70.5, -999.0
11-11-2022, 00:33:57,    255,    0.8,   12.7,   0.00,   0.00, 1018.2,   70.7, -999.0
11-11-2022, 00:34:07,    201,    5.3,   12.7,   0.00,   0.00, 1018.2,   70.7, -999.0
11-11-2022, 00:34:17,    218,    4.7,   12.7,   0.00,   0.00, 1018.2,   70.8, -999.0
11-11-2022, 00:34:27,    188,    2.8,   12.6,   0.00,   0.00, 1018.2,   70.7, -999.0
11-11-2022, 00:34:36,    185,    2.9,   12.7,   0.00,   0.00, 1018.2,   70.6, -999.0
11-11-2022, 00:34:47,    208,    1.9,   12.6,   0.00,   0.00, 1018.2,   70.8, -999.0
11-11-2022, 00:34:57,    229,    1.5,   12.6,   0.00,   0.00, 1018.2,   70.7, -999.0
11-11-2022, 00:35:06,    173,    3.6,   12.6,   0.00,   0.00, 1018.1,   70.8, -999.0
11-11-2022, 00:35:16,    203,    4.6,   12.7,   0.00,   0.00, 1018.2,   70.8, -999.0
11-11-2022, 00:35:27,    161,    3.0,   12.7,   0.00,   0.00, 1018.2,   70.8, -999.0
11-11-2022, 00:35:36,    258,    1.9,   12.7,   0.00,   0.00, 1018.2,   70.8, -999.0
11-11-2022, 00:35:46,    261,    0.9,   12.6,   0.00,   0.00, 1018.2,   70.7, -999.0
11-11-2022, 00:35:56,    205,    2.0,   12.7,   0.00,   0.00, 1018.2,   70.8, -999.0
11-11-2022, 00:36:06,    207,    1.0,   12.7,   0.00,   0.00, 1018.2,   70.8, -999.0
11-11-2022, 00:36:16,    203,    1.9,   12.7,   0.00,   0.00, 1018.2,   70.8, -999.0
11-11-2022, 00:36:26,    189,    0.9,   12.6,   0.00,   0.00, 1018.3,   70.9, -999.0
11-11-2022, 00:36:36,    185,    0.9,   12.7,   0.00,   0.00, 1018.3,   70.8, -999.0
11-11-2022, 00:36:46,    223,    3.2,   12.7,   0.00,   0.00, 1018.3,   70.8, -999.0
11-11-2022, 00:36:56,    182,    1.2,   12.7,   0.00,   0.00, 1018.2,   70.9, -999.0
11-11-2022, 00:37:06,    184,    1.9,   12.6,   0.00,   0.00, 1018.3,   70.9, -999.0
11-11-2022, 00:37:16,    178,    0.6,   12.6,   0.00,   0.00, 1018.2,   70.6, -999.0
11-11-2022, 00:37:26,    207,    0.8,   12.6,   0.00,   0.00, 1018.2,   70.8, -999.0
11-11-2022, 00:37:36,    232,    2.0,   12.6,   0.00,   0.00, 1018.2,   70.8, -999.0
11-11-2022, 00:37:46,    184,    5.0,   12.7,   0.00,   0.00, 1018.3,   70.9, -999.0
11-11-2022, 00:37:56,    193,    1.5,   12.7,   0.00,   0.00, 1018.3,   70.7, -999.0
11-11-2022, 00:38:06,    184,    2.9,   12.7,   0.00,   0.00, 1018.3,   70.7, -999.0
11-11-2022, 00:38:16,    204,    1.7,   12.7,   0.00,   0.00, 1018.3,   70.7, -999.0
11-11-2022, 00:38:26,    212,    3.3,   12.6,   0.00,   0.00, 1018.4,   70.8, -999.0
11-11-2022, 00:38:36,    233,    2.4,   12.7,   0.00,   0.00, 1018.3,   70.7, -999.0
11-11-2022, 00:38:46,    161,    3.8,   12.6,   0.00,   0.00, 1018.3,   70.7, -999.0
11-11-2022, 00:38:56,    208,    3.1,   12.7,   0.00,   0.00, 1018.3,   70.7, -999.0
11-11-2022, 00:39:06,    180,    2.6,   12.7,   0.00,   0.00, 1018.3,   70.6, -999.0
11-11-2022, 00:39:16,    191,    2.1,   12.7,   0.00,   0.00, 1018.4,   70.7, -999.0
11-11-2022, 00:39:26,    203,    1.5,   12.7,   0.00,   0.00, 1018.3,   70.7, -999.0
11-11-2022, 00:39:36,    204,    0.2,   12.7,   0.00,   0.00, 1018.3,   70.6, -999.0
11-11-2022, 00:39:45,    212,    1.3,   12.7,   0.00,   0.00, 1018.3,   70.6, -999.0
11-11-2022, 00:39:56,    187,    2.0,   12.7,   0.00,   0.00, 1018.3,   70.7, -999.0
11-11-2022, 00:40:06,    204,    2.5,   12.7,   0.00,   0.00, 1018.3,   70.6, -999.0
11-11-2022, 00:40:15,    184,    0.9,   12.7,   0.00,   0.00, 1018.3,   70.6, -999.0
11-11-2022, 00:40:25,    197,    1.8,   12.6,   0.00,   0.00, 1018.3,   70.6, -999.0
11-11-2022, 00:40:36,    190,    3.3,   12.7,   0.00,   0.00, 1018.3,   70.6, -999.0
11-11-2022, 00:40:45,    187,    2.2,   12.7,   0.00,   0.00, 1018.4,   70.6, -999.0
11-11-2022, 00:40:55,    214,    3.1,   12.7,   0.00,   0.00, 1018.4,   70.6, -999.0
11-11-2022, 00:41:05,    228,    4.0,   12.7,   0.00,   0.00, 1018.4,   70.6, -999.0
11-11-2022, 00:41:15,    213,    4.7,   12.8,   0.00,   0.00, 1018.3,   70.6, -999.0
11-11-2022, 00:41:25,    206,    5.1,   12.7,   0.00,   0.00, 1018.4,   70.6, -999.0
11-11-2022, 00:41:35,    223,    2.6,   12.8,   0.00,   0.00, 1018.4,   70.6, -999.0
11-11-2022, 00:41:45,    192,    5.2,   12.7,   0.00,   0.00, 1018.4,   70.5, -999.0
11-11-2022, 00:41:55,    184,    1.7,   12.8,   0.00,   0.00, 1018.4,   70.7, -999.0
11-11-2022, 00:42:05,    222,    3.4,   12.7,   0.00,   0.00, 1018.4,   70.7, -999.0
11-11-2022, 00:42:15,    198,    3.1,   12.8,   0.00,   0.00, 1018.4,   70.6, -999.0
11-11-2022, 00:42:25,    210,    2.8,   12.7,   0.00,   0.00, 1018.3,   70.6, -999.0
11-11-2022, 00:42:35,    206,    1.0,   12.8,   0.00,   0.00, 1018.3,   70.6, -999.0
11-11-2022, 00:42:45,    205,    0.5,   12.7,   0.00,   0.00, 1018.3,   70.5, -999.0
11-11-2022, 00:42:55,    188,    0.8,   12.7,   0.00,   0.00, 1018.4,   70.6, -999.0
11-11-2022, 00:43:05,    188,    0.4,   12.7,   0.00,   0.00, 1018.4,   70.6, -999.0
11-11-2022, 00:43:15,    188,    0.2,   12.6,   0.00,   0.00, 1018.3,   70.4, -999.0
11-11-2022, 00:43:25,    196,    0.5,   12.5,   0.00,   0.00, 1018.3,   70.5, -999.0
11-11-2022, 00:43:35,    181,    1.1,   12.7,   0.00,   0.00, 1018.4,   70.6, -999.0
11-11-2022, 00:43:45,    216,    1.7,   12.7,   0.00,   0.00, 1018.4,   70.7, -999.0
11-11-2022, 00:43:55,    181,    1.9,   12.6,   0.00,   0.00, 1018.4,   70.9, -999.0
11-11-2022, 00:44:05,    172,    0.2,   12.6,   0.00,   0.00, 1018.3,   70.7, -999.0
11-11-2022, 00:44:14,    288,    1.1,   12.6,   0.00,   0.00, 1018.4,   70.9, -999.0
11-11-2022, 00:44:25,    269,    1.4,   12.7,   0.00,   0.00, 1018.3,   70.8, -999.0
11-11-2022, 00:44:35,    248,    1.8,   12.6,   0.00,   0.00, 1018.3,   70.8, -999.0
11-11-2022, 00:44:44,    191,    3.9,   12.7,   0.00,   0.00, 1018.4,   71.0, -999.0
11-11-2022, 00:44:54,    223,    4.6,   12.7,   0.00,   0.00, 1018.4,   71.0, -999.0
11-11-2022, 00:45:05,    217,    3.2,   12.7,   0.00,   0.00, 1018.4,   70.8, -999.0
11-11-2022, 00:45:14,    218,    0.6,   12.7,   0.00,   0.00, 1018.3,   70.7, -999.0
11-11-2022, 00:45:24,    218,    0.0,   12.7,   0.00,   0.00, 1018.3,   70.6, -999.0
11-11-2022, 00:45:35,    185,    0.5,   12.7,   0.00,   0.00, 1018.3,   70.7, -999.0
11-11-2022, 00:45:44,    185,    0.6,   12.7,   0.00,   0.00, 1018.4,   70.7, -999.0
11-11-2022, 00:45:54,    175,    0.2,   12.6,   0.00,   0.00, 1018.3,   70.7, -999.0
11-11-2022, 00:46:04,    175,    0.4,   12.7,   0.00,   0.00, 1018.4,   70.9, -999.0
11-11-2022, 00:46:15,    251,    3.0,   12.6,   0.00,   0.00, 1018.4,   70.8, -999.0
11-11-2022, 00:46:24,    197,    2.4,   12.8,   0.00,   0.00, 1018.4,   70.9, -999.0
11-11-2022, 00:46:34,    199,    1.1,   12.7,   0.00,   0.00, 1018.3,   70.8, -999.0
11-11-2022, 00:46:44,    180,    2.6,   12.7,   0.00,   0.00, 1018.4,   70.7, -999.0